Regional Weather Roundup
Issued by NWS Goodland, KS

Home | Current Version | Previous Version | Graphics & Text | Print | Product List | Glossary On
Versions: 1 2 3 4 5 6 7 8 9 10 11 12 13 14 15 16 17 18 19 20 21 22 23 24 25 26 27 28 29 30 31 32 33 34 35 36 37 38 39 40 41 42 43 44 45 46 47 48 49 50
000
ASUS43 KGLD 282308
RWRGLD

GOODLAND FORECAST AREA HOURLY WEATHER ROUNDUP
NATIONAL WEATHER SERVICE GOODLAND KS
500 PM MDT TUE MAR 28 2017

...OFFICIAL OBSERVATIONS...

CITY           SKY/WX    TMP DP  RH WIND       PRES   REMARKS
GOODLAND KS    LGT RAIN  41  39  93 E14       29.94F
HILL CITY KS   RAIN      47  46  97 E9        30.00R FOG
IMPERIAL NEB   LGT RAIN  43  41  93 E15       29.99S
MCCOOK NEB     LGT RAIN  47  46  97 CALM      30.00S FOG
AKRON CO       LGT RAIN  43  41  93 SE22G29   29.88S FOG
BURLINGTON CO  CLOUDY    42  40  92 E21       29.90R
LIMON CO       CLOUDY    42  42 100 SE17      29.87R
$$

...UNOFFICIAL OBSERVATIONS...

CITY           SKY/WX    TMP DP  RH WIND       PRES   REMARKS
NORTON KS      LGT RAIN  48  43  81 E7        29.99R
SHARON SPRINGS   N/A     43  42  96 E16G24      N/A
TRENTON NEB      N/A     44  32  63 S6          N/A
KIT CARSON CO    N/A     44  39  84 MISG        N/A
YUMA CO        CLOUDY    41  39  93 E22       29.90R
$$



USA.gov is the U.S. government's official web portal to all federal, state and local government web resources and services.